Regional Weather Roundup
Issued by NWS Goodland, KS

Home | Current Version | Previous Version | Text Only | Print | Product List | Glossary On
Versions: 1 2 3 4 5 6 7 8 9 10 11 12 13 14 15 16 17 18 19 20 21 22 23 24 25 26 27 28 29 30 31 32 33 34 35 36 37 38 39 40 41 42 43 44 45 46 47 48 49 50
000
ASUS43 KGLD 240908
RWRGLD

GOODLAND FORECAST AREA HOURLY WEATHER ROUNDUP
NATIONAL WEATHER SERVICE GOODLAND KS
300 AM MDT THU AUG 24 2017

...OFFICIAL OBSERVATIONS...

CITY           SKY/WX    TMP DP  RH WIND       PRES   REMARKS
GOODLAND KS    PTCLDY    65  63  93 S10       30.05F
HILL CITY KS   PTCLDY    65  53  65 S6        30.03S
IMPERIAL NEB   CLOUDY    67  61  81 S12       30.00S
MCCOOK NEB     CLEAR     66  54  65 S8        30.01R
AKRON CO       CLOUDY    67  51  56 SW12      30.07S
BURLINGTON CO  CLOUDY    66  62  87 S8        30.07F
LIMON CO       CLOUDY    54  52  93 CALM      30.13F
$$

...UNOFFICIAL OBSERVATIONS...

CITY           SKY/WX    TMP DP  RH WIND       PRES   REMARKS
LENORA KS        N/A     64  32  30 CALM        N/A
NORTON KS      CLEAR     61  46  59 S7        30.02S
TRENTON NEB      N/A     65  32  29 SW6         N/A
KIT CARSON CO    N/A     62  59  89 CALM        N/A
YUMA CO        FAIR      61  43  51 SW6       30.04S
$$




USA.gov is the U.S. government's official web portal to all federal, state and local government web resources and services.